SCP
0 1 1 1 1 1 1 1 1 1 1 1 1 1 1 1 1 1 1 1 1 1 1 1 1 1 1 1 0 0 1 1 0 0 0 0 1 1 1 1 1 0 0
1 1 1 1 1 1 1 1 1 1 1 1 1 1 1 1 1 1 1 1 1 1 1 1 1 1 1 1 0 1 1 1 1 1 0 0 1 1 1 1 1 1 1
1 1 1 1 1 1 1 1 1 1 1 1 1 1 1 1 1 1 1 1 1 1 1 1 1 1 1 1 1 1 1 1 1 1 1 1 1 1 1 1 1 1 1
1 1 1 1 1 1 1 1 1 1 1 1 1 1 1 1 1 1 1 1 1 1 1 1 1 1 1 1 1 1 1 1 1 1 1 1 1 1 1 1 1 1 1
0 0 1 1 1 1 1 1 1 1 1 1 1 1 1 1 1 1 1 1 1 1 1 1 1 1 1 1 1 1 1 1 1 1 1 1 1 1 1 1 1 1 1
0 0 1 1 1 1 1 1 1 1 1 1 1 1 1 1 1 1 1 1 1 1 1 1 1 1 1 1 1 1 1 1 1 1 1 1 1 1 1 1 1 1 1
0 0 0 1 1 1 1 1 1 1 1 1 1 1 1 1 1 1 1 1 1 1 1 1 1 1 1 1 1 1 1 1 1 1 1 1 1 1 1 1 1 1 1
0 0 0 0 1 1 1 1 1 1 1 1 1 1 1 1 1 1 1 1 1 1 1 1 1 1 1 1 1 1 1 1 1 1 1 1 1 1 1 1 1 1 1
0 0 0 0 0 1 0 0 1 1 1 1 1 1 1 1 1 1 1 1 1 1 1 1 1 1 1 1 1 1 1 1 1 1 1 1 1 1 1 1 1 1 1
0 0 0 0 0 0 0 0 0 1 1 1 1 1 1 1 1 1 1 1 1 1 1 1 1 1 1 1 1 1 1 1 1 1 1 1 1 1 1 1 1 1 1
0 0 0 0 0 0 0 0 0 0 1 1 1 1 1 1 1 1 1 1 1 1 1 1 1 1 1 1 1 1 1 1 1 1 1 1 1 1 1 1 1 1 1
0 0 0 0 0 0 0 0 0 0 0 1 1 1 1 1 1 1 1 1 1 1 1 1 1 2 2 2 2 1 1 1 1 1 1 1 1 1 1 1 1 1 1
0 0 0 0 0 0 0 0 0 0 0 0 0 1 1 1 1 1 1 1 1 1 1 1 1 2 2 2 2 1 1 1 1 1 1 1 1 1 2 2 1 1 1
0 0 0 0 0 1 0 0 0 0 0 0 0 0 1 1 1 1 1 1 1 1 1 1 1 1 1 1 1 1 1 1 1 1 1 1 1 1 2 2 2 1 1
0 0 0 0 0 0 0 0 1 0 0 0 0 1 1 1 1 1 1 1 1 1 1 1 1 1 1 1 1 1 1 1 1 1 1 1 1 1 1 1 1 1 1
0 0 0 0 0 0 0 0 0 0 0 0 0 1 1 1 1 1 1 1 1 1 1 1 1 1 1 1 1 1 1 1 1 0 0 1 1 1 1 1 1 1 1
0 0 0 0 0 0 0 0 0 0 0 0 0 0 1 0 1 1 1 1 1 1 1 1 1 1 1 1 1 1 1 1 1 1 0 0 0 1 1 1 1 1 1
0 0 0 0 0 0 0 0 0 0 0 0 0 0 0 0 0 1 1 1 1 1 0 1 1 1 1 1 1 1 1 1 1 1 0 0 0 0 0 0 0 0 1
0 0 0 0 0 0 0 0 0 0 0 0 0 0 0 0 0 0 1 1 0 0 0 0 0 1 1 1 1 1 1 1 1 1 0 0 0 0 0 0 0 0 0
0 0 0 0 0 0 0 0 0 0 0 0 0 0 0 0 0 0 0 0 0 0 0 0 0 0 1 1 1 1 1 1 1 1 1 1 1 1 0 0 0 0 0
0 0 0 0 0 0 0 0 0 0 0 0 0 0 0 0 0 0 0 0 0 0 0 0 0 0 0 0 1 1 1 1 1 1 1 1 2 2 1 1 0 0 0
0 0 0 0 0 0 0 0 0 0 0 0 0 0 0 0 0 0 0 0 0 0 0 0 0 0 0 0 0 0 1 1 1 1 1 2 2 2 2 1 1 0 0
0 0 0 0 0 0 0 0 0 0 0 0 0 0 0 0 0 0 0 0 0 0 0 0 0 0 0 0 0 0 0 1 1 1 1 1 2 2 2 2 1 0 0
0 0 0 0 0 0 0 0 0 0 0 0 0 0 0 0 0 0 0 0 0 0 0 0 0 0 0 0 0 0 0 0 1 1 1 1 1 2 2 2 1 0 0
0 0 0 0 0 0 0 0 0 0 0 0 0 0 0 0 0 0 0 0 0 0 0 0 0 0 0 0 0 0 0 0 0 1 1 1 1 2 2 2 1 0 0
0 0 0 0 0 0 0 0 0 0 0 0 0 0 0 0 0 0 0 0 0 0 0 0 0 0 0 0 0 0 0 0 0 0 1 1 1 2 2 2 1 1 0
Wind_Speed
4 4 3 3 4 3 3 4 5 5 5 6 6 6 7 7 7 6 3 6 6 7 7 7 7 8 9 9 8 8 8 9 9 9 9 9 9 9 8 8 8 8 8
4 4 4 3 3 3 3 4 5 5 5 4 6 6 6 7 7 7 5 6 8 7 7 7 7 8 9 10 9 9 9 9 9 10 10 10 9 9 9 8 8 8 8
5 4 4 4 3 3 4 4 4 4 4 5 6 6 6 6 7 8 6 5 6 9 8 8 7 8 9 10 10 10 9 9 9 10 10 10 10 10 9 9 8 8 8
5 4 4 4 4 4 3 3 3 3 4 4 5 5 5 5 8 7 6 7 6 5 8 9 8 7 8 10 10 10 10 10 10 10 10 11 10 10 10 9 9 9 9
5 4 4 4 4 3 3 4 3 3 3 4 4 4 4 4 5 6 7 7 6 6 5 8 8 7 7 9 10 11 11 11 11 10 11 11 11 11 11 10 10 9 9
5 5 4 4 4 3 3 3 3 3 3 3 4 4 4 4 5 5 6 5 5 7 6 5 7 8 9 8 9 10 11 12 12 11 11 12 12 12 12 11 11 10 10
5 4 4 4 3 3 3 3 3 3 3 2 2 3 4 6 5 4 5 5 5 5 6 6 6 5 7 11 10 10 11 12 12 12 12 12 12 12 12 12 12 12 11
5 4 4 3 2 3 3 3 3 3 2 2 2 2 3 4 5 5 5 4 5 5 6 7 7 7 6 6 9 11 10 11 12 13 13 13 13 13 13 13 13 13 12
4 4 5 4 3 3 2 3 3 3 3 2 2 2 2 2 2 4 5 5 4 4 5 5 7 7 7 6 7 11 11 11 12 13 13 14 14 14 14 14 14 13 13
4 4 4 4 3 3 2 3 2 3 3 2 2 2 3 2 2 2 3 3 4 5 5 4 5 6 7 6 5 6 11 11 12 13 14 14 14 15 15 15 15 14 14
4 3 4 3 3 3 3 3 3 3 3 3 2 2 2 2 4 2 2 2 3 3 3 4 4 4 5 6 5 7 10 10 11 13 14 14 15 15 16 16 16 16 15
3 4 4 3 3 3 3 3 3 3 2 3 2 2 2 2 2 2 2 2 2 1 2 2 3 3 4 5 6 3 7 9 10 11 12 13 14 15 16 16 17 16 16
3 4 4 4 3 3 3 3 3 2 2 2 2 2 2 3 2 2 2 1 2 2 2 3 3 3 3 3 3 4 6 8 8 9 10 11 12 13 15 16 17 17 17
4 5 5 5 4 4 3 2 2 1 2 2 2 2 2 2 2 2 2 2 2 2 3 2 1 2 2 3 1 3 5 8 8 8 9 10 11 12 13 14 15 16 16
4 5 4 4 4 3 3 2 2 2 2 2 2 2 2 2 2 2 2 2 2 2 2 1 1 1 1 2 1 4 5 5 7 7 8 9 10 11 12 12 12 13 13
4 4 5 5 4 3 2 2 2 2 2 1 1 2 2 2 1 2 2 2 3 3 2 2 2 2 2 2 2 4 4 3 6 7 7 8 9 10 11 12 12 12 12
4 4 4 4 4 4 3 2 2 2 2 2 2 2 2 1 1 1 2 2 3 3 4 4 3 3 4 4 3 3 4 4 4 7 7 8 8 9 10 11 12 13 13
3 4 4 4 4 4 4 3 2 2 2 2 2 1 1 1 1 1 2 2 2 3 4 4 4 3 4 4 4 4 4 4 4 5 7 8 9 9 10 10 11 12 12
3 3 3 3 4 4 3 3 2 2 2 2 2 2 2 2 1 1 2 2 2 3 3 4 4 3 4 3 4 4 5 4 5 4 7 9 9 9 10 10 10 11 11
2 3 3 3 3 3 3 3 2 2 2 2 2 2 3 3 3 2 2 2 2 3 3 3 3 3 3 4 4 4 4 4 4 4 4 5 7 10 11 11 11 11 11
2 3 3 3 3 3 3 5 3 3 2 2 2 2 3 4 5 4 3 2 2 3 3 3 3 3 3 3 3 3 4 4 5 4 4 4 5 6 8 11 12 11 11
2 2 3 2 2 2 4 4 5 3 2 2 2 2 1 0 1 1 2 3 4 4 3 3 3 3 4 4 3 4 4 5 4 3 4 4 4 5 5 6 7 9 11
2 2 2 2 2 2 1 3 4 4 3 3 3 2 2 2 3 2 1 3 2 2 4 5 4 4 4 4 4 5 5 5 5 3 3 5 4 5 5 4 7 9 10
2 3 3 3 2 1 1 3 5 4 2 2 2 2 2 2 4 5 3 2 2 1 2 4 3 4 4 4 4 5 6 6 5 4 4 5 4 5 4 4 7 9 10
3 3 3 3 3 1 1 3 6 3 2 2 1 2 3 2 4 5 4 3 2 1 2 3 3 5 6 6 5 4 4 5 4 3 3 4 4 4 4 5 5 9 9
4 4 3 3 3 3 1 2 6 3 3 2 1 1 2 3 5 6 4 3 4 4 4 2 3 4 5 3 5 5 4 5 4 3 2 3 3 3 3 3 3 3 5
Wind_Direction
294 291 281 276 273 267 246 246 248 239 239 241 240 242 248 238 240 233 194 172 221 243 243 233 227 220 213 205 198 194 188 185 182 178 177 175 171 166 164 162 162 162 160
297 295 284 278 277 272 270 260 250 241 236 233 242 244 250 250 246 238 235 190 202 226 238 237 229 222 214 205 200 195 190 188 186 182 179 177 175 172 170 169 169 167 165
303 299 294 288 287 281 273 267 262 248 237 230 232 238 239 246 248 242 234 234 207 201 217 228 228 224 216 206 200 195 192 189 185 185 182 179 177 174 174 175 175 172 172
310 303 294 291 290 284 277 263 256 246 240 237 237 233 237 230 239 240 236 224 224 214 197 203 215 218 216 210 204 198 196 192 188 189 187 182 181 180 179 180 180 178 176
318 309 303 298 292 282 278 271 254 254 246 240 242 234 240 237 236 231 234 232 222 222 214 171 193 207 209 210 208 203 200 198 195 194 193 188 186 186 184 185 183 183 182
324 317 301 299 300 281 276 272 266 253 256 246 246 240 232 237 236 229 235 234 236 229 220 200 197 194 199 205 205 205 204 202 200 199 198 194 191 192 192 190 189 188 188
324 318 307 310 302 289 283 275 267 253 244 247 248 242 230 229 232 223 228 231 228 233 222 209 219 209 189 195 202 206 207 205 204 204 202 199 197 195 195 193 194 195 196
327 314 311 303 300 289 280 279 268 265 251 225 239 241 224 209 217 218 215 225 233 222 230 223 214 209 219 193 184 197 207 207 208 209 207 203 201 200 199 199 200 202 201
328 320 319 313 308 295 296 287 276 266 264 239 232 245 247 232 202 200 208 210 218 226 226 231 228 220 217 213 190 189 201 206 209 213 213 210 207 206 204 205 206 206 206
337 329 320 315 316 312 302 286 283 273 269 259 234 245 269 309 264 196 194 202 212 224 230 225 231 230 228 225 209 185 190 204 210 215 217 217 215 212 210 210 210 210 210
347 342 330 322 321 316 314 306 293 278 267 270 261 245 249 255 265 260 215 200 211 218 227 234 235 235 238 234 227 201 187 202 210 216 220 221 221 220 217 214 213 214 214
349 1 338 326 323 323 316 305 290 273 273 273 270 260 253 253 257 259 255 246 247 246 246 241 242 239 241 247 235 172 188 205 213 218 222 222 222 222 222 219 217 217 218
350 354 340 329 330 328 321 307 292 291 273 269 267 270 267 266 270 269 258 262 269 265 254 235 224 227 233 242 223 165 199 207 216 222 223 224 223 223 224 223 221 220 221
352 347 338 333 333 328 320 311 296 299 294 279 267 268 266 259 257 258 261 258 252 247 236 231 228 224 231 238 199 222 215 197 210 223 227 225 224 222 222 223 224 223 223
349 347 339 337 343 338 329 329 320 323 321 305 286 262 260 253 248 247 250 262 264 263 261 237 222 213 266 261 194 236 240 187 201 218 228 230 226 223 221 220 222 224 224
351 347 350 351 357 357 340 335 325 335 312 323 300 279 266 252 246 237 228 231 246 260 269 273 273 268 284 272 219 258 252 194 210 215 224 231 230 225 224 220 219 220 222
347 355 3 360 4 4 1 354 345 352 336 331 302 284 282 289 264 255 244 234 234 242 255 267 269 269 268 269 262 263 253 246 222 203 219 229 231 230 229 227 222 220 220
353 359 8 10 10 5 4 1 1 4 3 346 335 329 328 326 297 280 263 258 252 252 259 268 271 273 273 273 269 263 258 248 249 204 214 227 232 232 230 230 228 224 221
347 357 2 9 10 7 5 2 3 11 17 9 356 347 343 328 294 282 266 266 266 262 259 260 271 277 274 271 269 263 257 256 254 228 214 220 225 230 232 230 228 225 222
337 342 353 1 3 359 353 359 7 15 18 18 360 348 343 338 327 313 276 263 264 262 259 260 263 269 273 275 266 264 260 248 250 248 238 229 222 224 227 226 225 224 225
317 333 338 345 358 351 357 352 351 356 4 5 7 11 15 4 354 335 322 311 287 267 256 259 266 272 274 270 266 265 266 268 259 245 245 236 228 230 220 219 222 224 225
297 313 317 331 341 357 24 348 321 333 341 354 3 360 22 345 26 286 311 328 323 303 288 269 269 273 280 280 282 274 267 264 260 233 246 249 241 243 238 233 206 208 218
270 284 293 303 311 22 18 320 309 307 327 342 346 347 1 3 321 329 191 208 233 257 277 287 284 287 291 294 281 274 272 270 271 269 264 259 245 249 245 234 201 210 217
261 269 284 291 294 322 289 284 288 274 300 321 326 327 325 344 5 341 324 314 325 311 288 274 289 296 300 301 288 282 282 276 272 259 248 259 250 253 256 243 199 210 218
257 257 266 276 275 255 198 261 278 268 269 280 304 331 327 345 30 328 302 313 320 323 202 234 285 292 299 298 293 278 272 267 266 252 228 253 266 268 261 248 212 204 221
252 257 256 264 273 283 113 257 276 263 265 274 276 242 69 345 358 329 305 312 316 333 328 296 248 240 255 242 244 262 275 278 281 276 236 246 265 269 265 238 234 222 225